WetterOnline ( http://www.wetteronline.de )

Wetter aktuell Alfeld

Aktuelles Wetter: Alfeld (148m)

6-stündlich | Neueste Meldungen
Ortszeit Temperatur Wetter
Fr, 19.10. 2:00 11.0° C bewölkt
Do, 18.10. 20:00 12.7° C Sprühregen
Do, 18.10. 14:00 15.7° C bedeckt
Do, 18.10. 8:00 11.1° C bewölkt
Do, 18.10. 2:00 11.1° C leicht bewölkt
Mi, 17.10. 20:00 14.1° C wolkig
Mi, 17.10. 14:00 22.0° C leicht bewölkt
Mi, 17.10. 8:00 9.3° C bewölkt
Ortszeit Temperatur Wetter
Fr, 19.10. 7:00 8.5° C bedeckt
Fr, 19.10. 6:50 8.5° C bedeckt
Fr, 19.10. 6:40 8.7° C bedeckt
Fr, 19.10. 6:30 9.1° C bedeckt
Fr, 19.10. 6:20 9.1° C bedeckt
Fr, 19.10. 6:10 9.1° C bedeckt
Fr, 19.10. 6:00 9.3° C bewölkt
Fr, 19.10. 5:30 9.7° C bedeckt
Fr, 19.10. 5:00 9.8° C bedeckt
Fr, 19.10. 4:30 9.9° C bedeckt
Fr, 19.10. 4:00 10.2° C bedeckt
Ortszeit Relative Feuchte Sichtweite
Fr, 19.10. 2:00 84% 60 km
Do, 18.10. 20:00 96% 7 km
Do, 18.10. 14:00 67% 21 km
Do, 18.10. 8:00 100% 1.0 km
Do, 18.10. 2:00 96% 3.1 km
Mi, 17.10. 20:00 84% 21 km
Mi, 17.10. 14:00 50% 35 km
Mi, 17.10. 8:00 97% 4.0 km
Ortszeit Relative Feuchte Sichtweite
Fr, 19.10. 7:00 89% 35 km
Fr, 19.10. 6:50 89% -
Fr, 19.10. 6:40 88% -
Fr, 19.10. 6:30 81% 60 km
Fr, 19.10. 6:20 81% -
Fr, 19.10. 6:10 82% -
Fr, 19.10. 6:00 81% 70 km
Fr, 19.10. 5:30 78% 70 km
Fr, 19.10. 5:00 77% 70 km
Fr, 19.10. 4:30 77% 70 km
Fr, 19.10. 4:00 73% 70 km
Ortszeit Niederschlagsmenge Niederschlagsart
Fr, 19.10. 2:00 0.5 l/m2 in 6 Std. Regen
Do, 18.10. 20:00 0.1 l/m2 in 12 Std. Regen
Do, 18.10. 14:00 0.0 l/m2 in 6 Std. -
Do, 18.10. 8:00 0.0 l/m2 in 12 Std. -
Do, 18.10. 2:00 0.0 l/m2 in 6 Std. -
Mi, 17.10. 20:00 0.0 l/m2 in 12 Std. -
Mi, 17.10. 14:00 0.0 l/m2 in 6 Std. -
Mi, 17.10. 8:00 0.1 l/m2 in 12 Std. -
Ortszeit Niederschlagsmenge Niederschlagsart
Fr, 19.10. 7:00 0.0 l/m2 in 1 Std. -
Fr, 19.10. 6:50 keine Meldung -
Fr, 19.10. 6:40 keine Meldung -
Fr, 19.10. 6:30 0.0 l/m2 in 1 Std. -
Fr, 19.10. 6:20 keine Meldung -
Fr, 19.10. 6:10 keine Meldung -
Fr, 19.10. 6:00 0.0 l/m2 in 1 Std. -
Fr, 19.10. 5:30 0.0 l/m2 in 1 Std. -
Fr, 19.10. 5:00 0.0 l/m2 in 1 Std. -
Fr, 19.10. 4:30 0.0 l/m2 in 1 Std. -
Fr, 19.10. 4:00 0.0 l/m2 in 1 Std. -
Ortszeit Stärke Spitze Richtung
km/h Bft. km/h Grad Sektor
Fr, 19.10. 2:00 6 1 24 300° NW
Do, 18.10. 20:00 9 2 24 310° NW
Do, 18.10. 14:00 11 2 25 320° NW
Do, 18.10. 8:00 4 1 22 310° NW
Do, 18.10. 2:00 2 1 7 320° NW
Mi, 17.10. 20:00 0 0 18 - -
Mi, 17.10. 14:00 7 2 17 20° N
Mi, 17.10. 8:00 9 2 15 130° SO
Ortszeit Stärke Spitze Richtung
km/h Bft. km/h Grad Sektor
Fr, 19.10. 7:00 7 2 11 310° NW
Fr, 19.10. 6:50 7 2 - 310° NW
Fr, 19.10. 6:40 4 1 - 320° NW
Fr, 19.10. 6:30 4 1 7 10° N
Fr, 19.10. 6:20 4 1 - 10° N
Fr, 19.10. 6:10 4 1 - 10° N
Fr, 19.10. 6:00 6 1 9 330° NW
Fr, 19.10. 5:30 6 1 7 310° NW
Fr, 19.10. 5:00 2 1 11 320° NW
Fr, 19.10. 4:30 7 2 11 340° N
Fr, 19.10. 4:00 7 2 17 360° N
Ortszeit Untergrenze Bedeckung Gattung
total tief tief mittel hoch
Fr, 19.10. 2:00 600 m 7/8 7/8 - - -
Do, 18.10. 20:00 180 m 7/8 7/8 - - -
Do, 18.10. 14:00 750 m 8/8 8/8 - - -
Do, 18.10. 8:00 30 m 7/8 8/8 - - -
Do, 18.10. 2:00 9000 m 4/8 0/8 - - -
Mi, 17.10. 20:00 7200 m 8/8 0/8 - - -
Mi, 17.10. 14:00 8100 m 6/8 0/8 - - -
Mi, 17.10. 8:00 2700 m 8/8 6/8 - - -
Ortszeit Bedeckungsgrad in Achtel und Wolkenuntergrenze
Fr, 19.10. 7:00 8(1470m)
Fr, 19.10. 6:50 8(1470m)
Fr, 19.10. 6:40 8(1440m)
Fr, 19.10. 6:30 8(1440m)
Fr, 19.10. 6:20 8(1440m)
Fr, 19.10. 6:10 8(1440m)
Fr, 19.10. 6:00 7(1470m)
Fr, 19.10. 5:30 8(1470m)
Fr, 19.10. 5:00 1(510m) 4(1110m) 8(1410m)
Fr, 19.10. 4:30 1(750m) 8(1440m) 8(1410m)
Fr, 19.10. 4:00 1(630m) 8(1470m)
Ortszeit Luftdruck NN (hPa) Tendenz (hPa in 3 Std.)
Fr, 19.10. 2:00 1026 + 0,3
Do, 18.10. 20:00 1024 + 1,0
Do, 18.10. 14:00 1023 - 0,1
Do, 18.10. 8:00 1022 + 1,1
Do, 18.10. 2:00 1021 + 0,6
Mi, 17.10. 20:00 1019 + 0,8
Mi, 17.10. 14:00 1019 - 1,0
Mi, 17.10. 8:00 1020 + 0,2
Ortszeit Luftdruck NN (hPa) Tendenz (hPa in 3 Std.)
Fr, 19.10. 7:00 1026 + 0,2
Fr, 19.10. 6:50 1026 keine Meldung
Fr, 19.10. 6:40 1026 keine Meldung
Fr, 19.10. 6:30 1026 + 0,2
Fr, 19.10. 6:20 1026 keine Meldung
Fr, 19.10. 6:10 1026 keine Meldung
Fr, 19.10. 6:00 1026 0,0
Fr, 19.10. 5:30 1025 - 0,1
Fr, 19.10. 5:00 1025 - 0,3
Fr, 19.10. 4:30 1025 - 0,3
Fr, 19.10. 4:00 1025 - 0,5
Ortszeit Schneehöhe (cm)
Fr, 19.10. 2:00 0
Do, 18.10. 20:00 0
Do, 18.10. 14:00 0
Do, 18.10. 8:00 0
Do, 18.10. 2:00 0
Mi, 17.10. 20:00 0
Mi, 17.10. 14:00 0
Mi, 17.10. 8:00 0
Ortszeit Schneehöhe (cm)
Fr, 19.10. 7:00 0
Fr, 19.10. 6:50 0
Fr, 19.10. 6:40 0
Fr, 19.10. 6:30 0
Fr, 19.10. 6:20 0
Fr, 19.10. 6:10 0
Fr, 19.10. 6:00 0
Fr, 19.10. 5:30 0
Fr, 19.10. 5:00 0
Fr, 19.10. 4:30 0
Fr, 19.10. 4:00 0
Link zu dieser Seite / Seite empfehlen

Das Wetter in ...